Weather History for Gallup, NM

Change the Weather History Date:

Saturday, October 29, 2011

  Actual Average Record
Temperature  
Mean Temperature 42 °F -  
Max Temperature 66 °F 57 °F 73 °F (2001)
Min Temperature 21 °F 25 °F 13 °F (1991)
Degree Days  
Heating Degree Days 22    
Moisture  
Dew Point 22 °F    
Average Humidity 56    
Maximum Humidity 89    
Minimum Humidity 19    
Precipitation  
Precipitation 0.00 in - - ()
Sea Level Pressure  
Sea Level Pressure 30.22 in    
Wind  
Wind Speed 2 mph (WNW)    
Max Wind Speed 15 mph    
Max Gust Speed -    
Visibility 10 miles    
Events      
Averages and records for this station are not official NWS values.
T = Trace of Precipitation, MM = Missing Value Source: NWS Daily Summary

Daily Weather History Graph

Daily Weather History Graph

Search for Another Location

Airport:

Trip Planner

Search our weather history database for the weather conditions in past years. The results will help you decide how hot, cold, wet, or windy it might be!

Date:

Astronomy

Oct. 29, 2011 Rise Set
Actual Time 7:33 AM MDT 6:23 PM MDT
Civil Twilight 7:07 AM MDT 6:49 PM MDT
Nautical Twilight 6:37 AM MDT 7:19 PM MDT
Astronomical Twilight 6:08 AM MDT 7:49 PM MDT
Moon 10:52 AM MDT (10/29) 8:56 PM MDT (10/29)
Length of Visible Light 11h 41m
Length of Day
10h 49m
Waxing Crescent, 12% of the Moon is Illuminated
Oct 29
Waxing Crescent
Nov 2
First Quarter
Nov 10
Full
Nov 18
Last Quarter
Nov 24
New

Hourly Weather History & Observations

Time (MDT) Temp. Dew Point Humidity Pressure Visibility Wind Dir Wind Speed Gust Speed Precip Events Conditions
12:53 AM 25.0 °F 19.9 °F 81% 30.27 in 10.0 mi Calm Calm - N/A   Clear
1:53 AM 27.0 °F 21.0 °F 78% 30.21 in 10.0 mi Calm Calm - N/A   Clear
2:53 AM 26.1 °F 21.9 °F 84% 30.21 in 10.0 mi Calm Calm - N/A   Clear
3:53 AM 24.8 °F 19.4 °F 80% 30.29 in 10.0 mi Calm Calm - N/A   Clear
4:53 AM 23.0 °F 19.0 °F 85% 30.22 in 10.0 mi Calm Calm - N/A   Clear
5:53 AM 21.0 °F 17.1 °F 85% 30.25 in 10.0 mi Calm Calm - N/A   Clear
6:53 AM 21.9 °F 19.0 °F 89% 30.32 in 10.0 mi Calm Calm - N/A   Clear
7:53 AM 23.0 °F 19.9 °F 88% 30.35 in 10.0 mi Calm Calm - N/A   Clear
8:53 AM 30.9 °F 25.0 °F 79% 30.33 in 10.0 mi Calm Calm - N/A   Clear
9:53 AM 39.0 °F 25.0 °F 57% 30.31 in 10.0 mi Calm Calm - N/A   Clear
10:53 AM 46.9 °F 27.0 °F 46% 30.26 in 10.0 mi Calm Calm - N/A   Clear
11:53 AM 53.1 °F 23.0 °F 31% 30.19 in 10.0 mi SW 5.8 mph - N/A   Clear
12:53 PM 59.0 °F 23.0 °F 25% 30.16 in 10.0 mi West 9.2 mph - N/A   Clear
1:53 PM 61.0 °F 24.1 °F 24% 30.09 in 10.0 mi Variable 4.6 mph - N/A   Clear
2:53 PM 64.0 °F 24.1 °F 22% 30.04 in 10.0 mi WSW 10.4 mph - N/A   Clear
3:53 PM 64.9 °F 21.9 °F 19% 30.04 in 10.0 mi West 15.0 mph - N/A   Clear
4:53 PM 62.6 °F 24.8 °F 24% 30.19 in 10.0 mi North 12.7 mph - N/A   Clear
5:53 PM 59.0 °F 21.2 °F 23% 30.20 in 10.0 mi NNE 5.8 mph - N/A   Clear
6:53 PM 51.1 °F 21.9 °F 32% 30.19 in 10.0 mi NNE 8.1 mph - N/A   Clear
7:53 PM 44.1 °F 23.0 °F 43% 30.26 in 10.0 mi Calm Calm - N/A   Clear
8:53 PM 39.9 °F 24.1 °F 53% 30.23 in 10.0 mi Calm Calm - N/A   Clear
9:53 PM 36.0 °F 24.1 °F 62% 30.22 in 10.0 mi Calm Calm - N/A   Clear
10:53 PM 33.1 °F 23.0 °F 66% 30.19 in 10.0 mi Calm Calm - N/A   Clear
11:53 PM 30.9 °F 23.0 °F 72% 30.17 in 10.0 mi Calm Calm - N/A   Clear